Theta_e
274 274 274 274 274 274 274 275 276 275 275 276 275 275 277 279 279 284 284 290 291 291
272 272 272 273 274 274 275 275 275 275 274 274 274 274 274 274 275 278 283 285 292 290
272 272 272 272 272 273 274 274 273 273 273 273 273 273 273 274 276 278 280 283 291 292
271 271 271 271 272 272 273 273 272 272 272 272 272 272 272 272 272 273 276 282 286 291
269 269 269 270 271 272 271 272 271 271 271 271 271 271 271 271 272 273 276 280 281 291
268 268 269 269 270 270 270 270 270 270 269 269 270 270 271 271 271 272 276 279 282 286
267 268 268 268 269 269 269 268 268 268 269 269 269 270 270 271 271 272 275 278 280 283
267 267 267 267 267 267 267 267 267 267 268 268 268 270 269 270 270 271 275 277 280 283
266 266 266 266 265 265 265 265 265 266 266 267 268 272 274 274 273 274 274 277 279 282
264 263 263 264 263 263 263 263 264 266 267 267 268 272 274 275 274 274 275 276 279 281
262 261 261 261 261 261 263 263 264 265 266 267 269 274 275 276 274 275 275 276 278 280
261 259 259 258 259 262 262 262 262 265 265 265 266 273 276 277 274 274 274 277 279 281
259 257 257 258 260 261 260 262 264 263 265 267 267 272 277 279 275 272 274 275 278 282
258 256 257 260 260 260 260 262 261 262 264 266 270 270 275 279 277 275 274 275 277 281
Wind_Speed
7 6 7 9 10 10 11 12 15 14 14 16 17 18 17 14 13 16 13 21 12 8
6 7 10 12 12 11 13 13 16 16 17 17 17 18 20 15 16 17 16 19 13 10
8 9 10 11 14 15 15 17 17 17 18 18 17 17 18 15 14 16 14 12 16 13
9 10 11 12 14 15 16 17 18 18 20 19 18 17 16 17 19 19 18 17 20 13
10 11 11 12 14 15 17 17 19 19 19 19 19 17 18 19 16 17 17 18 18 16
11 11 12 14 15 16 17 18 19 19 20 19 19 18 17 18 19 17 18 17 19 18
12 13 14 15 16 16 17 19 19 18 19 19 19 19 18 18 18 18 17 16 17 19
13 14 15 16 17 17 18 18 19 19 18 18 17 14 17 17 18 18 17 16 17 17
13 14 15 16 17 18 18 18 18 18 19 19 14 25 27 23 16 18 18 16 16 17
13 14 15 17 17 17 18 18 19 18 18 19 18 28 28 28 15 16 17 18 15 14
14 14 15 16 17 18 16 18 18 18 19 19 17 28 28 28 17 15 17 18 19 17
14 15 16 16 18 17 17 18 18 17 18 19 20 30 30 24 14 14 17 17 18 17
13 13 15 17 17 16 16 18 16 19 17 19 20 28 29 21 8 12 12 15 17 23
13 13 14 15 15 15 16 16 17 17 17 18 16 18 30 26 11 11 11 12 12 11
Wind_Direction
266 281 287 286 289 288 289 291 293 292 290 285 295 288 279 279 293 283 272 273 223 231
281 293 291 287 288 288 285 288 291 294 290 286 288 289 290 283 284 286 288 288 234 228
296 288 289 292 292 289 290 292 291 290 289 284 282 281 279 280 277 278 279 278 267 238
296 299 296 289 292 292 291 291 291 292 289 285 282 279 274 277 277 274 275 275 283 242
303 297 293 292 292 293 292 292 292 291 287 285 280 276 272 272 272 276 270 278 288 250
298 302 301 301 299 300 297 294 293 290 287 285 280 275 270 270 270 267 267 268 273 280
309 314 311 306 304 302 300 295 292 288 286 282 279 274 270 267 268 264 259 262 268 276
320 317 310 310 307 303 299 295 293 291 287 283 277 271 264 259 261 264 265 257 260 265
319 315 312 310 309 306 302 300 296 290 286 281 273 276 274 272 262 263 261 261 256 261
318 313 316 313 309 308 306 302 296 294 292 289 280 279 278 273 264 259 260 259 259 257
321 318 318 312 310 308 305 306 305 300 295 288 287 289 285 276 263 254 253 259 255 253
322 320 316 310 310 310 311 308 303 302 302 297 290 292 292 279 262 257 261 253 252 249
318 311 308 306 309 314 306 306 310 305 300 296 295 296 302 300 245 254 257 258 258 255
313 307 298 307 311 311 311 311 307 306 306 300 305 311 306 317 316 241 244 253 251 248